When you browse on this site, cookies collect data to enhance your experience and personalize the content and advertising you see.
Visit our Privacy Policy to learn more. By continuing to use the site, you agree to this use of cookies and data.
  • En España
  • Lista de países
  • Para 7 días
  • Temperatura del agua
  • El tiempo en el mapa
  • Informadores
  • user-avatar
    Iniciar sesión

    Tiempo cada hora Gor-Apole

    Hoy, 5 Junio, Viernes

    Tiempo Temperatura Precipitaciones Viento Presión Humedad
    00:00 +8°C° 0 mm 2 mps 736 mmHg 96%
    01:00 +8°C° 0 mm 2 mps 736 mmHg 96%
    02:00 +8°C° 0 mm 2 mps 736 mmHg 96%
    03:00 +8°C° 0 mm 2 mps 736 mmHg 96%
    04:00 +8°C° 0 mm 2 mps 736 mmHg 97%
    05:00 +8°C° 0 mm 2 mps 736 mmHg 97%
    06:00 +10°C° 0.1 mm 3 mps 736 mmHg 94%
    07:00 +12°C° 0.1 mm 3 mps 736 mmHg 90%
    08:00 +13°C° 0.1 mm 3 mps 737 mmHg 87%
    09:00 +14°C° 0.7 mm 3 mps 737 mmHg 85%
    10:00 +15°C° 0.7 mm 4 mps 737 mmHg 83%
    11:00 +15°C° 0.7 mm 4 mps 737 mmHg 80%
    12:00 +17°C° 0.3 mm 4 mps 737 mmHg 77%
    13:00 +18°C° 0.3 mm 3 mps 737 mmHg 74%
    14:00 +18°C° 0.3 mm 3 mps 737 mmHg 70%
    15:00 +18°C° 0 mm 3 mps 737 mmHg 69%
    16:00 +19°C° 0 mm 3 mps 737 mmHg 68%
    17:00 +19°C° 0 mm 2 mps 737 mmHg 66%
    18:00 +17°C° 0 mm 2 mps 737 mmHg 74%
    19:00 +16°C° 0 mm 2 mps 738 mmHg 82%
    20:00 +14°C° 0 mm 2 mps 738 mmHg 90%
    21:00 +14°C° 0 mm 2 mps 738 mmHg 91%
    22:00 +12°C° 0 mm 3 mps 738 mmHg 93%
    23:00 +11°C° 0 mm 3 mps 739 mmHg 94%

    Mañana, 6 Junio, Sábado

    Tiempo Temperatura Precipitaciones Viento Presión Humedad
    00:00 +11°C° 0 mm 3 mps 739 mmHg 95%
    01:00 +11°C° 0 mm 3 mps 739 mmHg 95%
    02:00 +11°C° 0 mm 3 mps 739 mmHg 95%
    03:00 +12°C° 0 mm 3 mps 739 mmHg 96%
    04:00 +13°C° 0 mm 4 mps 739 mmHg 96%
    05:00 +13°C° 0 mm 4 mps 739 mmHg 96%
    06:00 +15°C° 0 mm 4 mps 739 mmHg 91%
    07:00 +18°C° 0 mm 4 mps 739 mmHg 87%
    08:00 +19°C° 0 mm 5 mps 739 mmHg 82%
    09:00 +19°C° 0.5 mm 5 mps 739 mmHg 85%
    10:00 +19°C° 0.5 mm 4 mps 739 mmHg 88%
    11:00 +19°C° 0.5 mm 4 mps 739 mmHg 91%
    12:00 +20°C° 0.2 mm 4 mps 740 mmHg 87%
    13:00 +20°C° 0.2 mm 5 mps 740 mmHg 83%
    14:00 +21°C° 0.2 mm 5 mps 740 mmHg 80%
    15:00 +21°C° 0.2 mm 5 mps 740 mmHg 79%
    16:00 +22°C° 0.2 mm 4 mps 741 mmHg 79%
    17:00 +22°C° 0.2 mm 4 mps 741 mmHg 79%
    18:00 +20°C° 0.1 mm 3 mps 741 mmHg 83%
    19:00 +19°C° 0.1 mm 3 mps 742 mmHg 87%
    20:00 +18°C° 0.1 mm 2 mps 742 mmHg 91%
    21:00 +17°C° 0 mm 2 mps 743 mmHg 92%
    22:00 +16°C° 0 mm 2 mps 744 mmHg 93%
    23:00 +15°C° 0 mm 1 mps 744 mmHg 94%

    Pasado mañana, 7 Junio, Domingo

    Tiempo Temperatura Precipitaciones Viento Presión Humedad
    00:00 +14°C° 0 mm 1 mps 745 mmHg 93%
    01:00 +14°C° 0 mm 1 mps 745 mmHg 93%
    02:00 +12°C° 0 mm 0 mps 745 mmHg 93%
    03:00 +14°C° 0 mm 1 mps 746 mmHg 93%
    04:00 +14°C° 0 mm 1 mps 746 mmHg 92%
    05:00 +15°C° 0 mm 1 mps 746 mmHg 92%
    06:00 +17°C° 0 mm 2 mps 746 mmHg 86%
    07:00 +18°C° 0 mm 2 mps 747 mmHg 81%
    08:00 +20°C° 0 mm 2 mps 747 mmHg 76%
    09:00 +22°C° 0 mm 3 mps 747 mmHg 71%
    10:00 +24°C° 0 mm 3 mps 747 mmHg 67%
    11:00 +25°C° 0 mm 3 mps 747 mmHg 63%
    12:00 +26°C° 0.1 mm 3 mps 747 mmHg 64%
    13:00 +26°C° 0.1 mm 3 mps 747 mmHg 65%
    14:00 +26°C° 0.1 mm 3 mps 747 mmHg 66%
    15:00 +25°C° 0.7 mm 3 mps 747 mmHg 73%
    16:00 +25°C° 0.7 mm 3 mps 746 mmHg 80%
    17:00 +24°C° 0.7 mm 3 mps 746 mmHg 87%
    18:00 +22°C° 0.4 mm 3 mps 746 mmHg 89%
    19:00 +22°C° 0.4 mm 3 mps 746 mmHg 91%
    20:00 +21°C° 0.4 mm 3 mps 746 mmHg 93%
    21:00 +20°C° 0.1 mm 3 mps 746 mmHg 94%
    22:00 +20°C° 0.1 mm 3 mps 746 mmHg 95%
    23:00 +19°C° 0.1 mm 3 mps 747 mmHg 96%

    8 Junio, Lunes

    Tiempo Temperatura Precipitaciones Viento Presión Humedad
    00:00 +18°C° 0 mm 2 mps 747 mmHg 96%
    01:00 +18°C° 0 mm 2 mps 747 mmHg 96%
    02:00 +17°C° 0 mm 2 mps 747 mmHg 96%
    03:00 +17°C° 0 mm 2 mps 747 mmHg 96%
    04:00 +18°C° 0 mm 2 mps 747 mmHg 96%
    05:00 +18°C° 0 mm 2 mps 747 mmHg 96%
    06:00 +19°C° 0 mm 3 mps 747 mmHg 90%
    07:00 +21°C° 0 mm 3 mps 747 mmHg 84%
    08:00 +22°C° 0 mm 3 mps 747 mmHg 79%
    09:00 +24°C° 0 mm 3 mps 748 mmHg 74%
    10:00 +26°C° 0 mm 3 mps 748 mmHg 69%
    11:00 +27°C° 0 mm 3 mps 748 mmHg 64%
    12:00 +27°C° 0.1 mm 3 mps 748 mmHg 63%
    13:00 +28°C° 0.1 mm 3 mps 747 mmHg 62%
    14:00 +28°C° 0.1 mm 4 mps 747 mmHg 61%
    15:00 +28°C° 0.1 mm 3 mps 747 mmHg 64%
    16:00 +28°C° 0.1 mm 3 mps 747 mmHg 67%
    17:00 +27°C° 0.1 mm 3 mps 747 mmHg 70%
    18:00 +26°C° 0 mm 2 mps 747 mmHg 76%
    19:00 +24°C° 0 mm 2 mps 747 mmHg 82%
    20:00 +23°C° 0 mm 2 mps 747 mmHg 88%
    21:00 +21°C° 0 mm 2 mps 747 mmHg 89%
    22:00 +20°C° 0 mm 2 mps 747 mmHg 91%
    23:00 +20°C° 0 mm 1 mps 747 mmHg 93%

    9 Junio, Martes

    Tiempo Temperatura Precipitaciones Viento Presión Humedad
    00:00 +19°C° 0 mm 2 mps 747 mmHg 94%
    01:00 +18°C° 0 mm 2 mps 747 mmHg 94%
    02:00 +18°C° 0 mm 2 mps 747 mmHg 95%
    03:00 +18°C° 0 mm 2 mps 747 mmHg 95%
    04:00 +19°C° 0 mm 2 mps 747 mmHg 94%
    05:00 +19°C° 0 mm 2 mps 747 mmHg 94%
    06:00 +20°C° 0 mm 2 mps 748 mmHg 89%
    07:00 +22°C° 0 mm 3 mps 748 mmHg 84%
    08:00 +25°C° 0 mm 3 mps 748 mmHg 78%
    09:00 +26°C° 0 mm 3 mps 748 mmHg 73%
    10:00 +27°C° 0 mm 3 mps 748 mmHg 68%
    11:00 +28°C° 0 mm 3 mps 748 mmHg 62%
    12:00 +28°C° 0 mm 3 mps 748 mmHg 61%
    13:00 +29°C° 0 mm 4 mps 747 mmHg 59%
    14:00 +29°C° 0 mm 4 mps 747 mmHg 58%
    15:00 +29°C° 0.1 mm 3 mps 747 mmHg 61%
    16:00 +28°C° 0.1 mm 3 mps 747 mmHg 64%
    17:00 +28°C° 0.1 mm 2 mps 747 mmHg 67%
    18:00 +26°C° 0.1 mm 2 mps 747 mmHg 73%
    19:00 +25°C° 0.1 mm 2 mps 747 mmHg 80%
    20:00 +23°C° 0.1 mm 2 mps 747 mmHg 86%
    21:00 +21°C° 0 mm 2 mps 747 mmHg 88%
    22:00 +20°C° 0 mm 2 mps 747 mmHg 90%
    23:00 +20°C° 0 mm 2 mps 747 mmHg 93%

    10 Junio, Miércoles

    Tiempo Temperatura Precipitaciones Viento Presión Humedad
    00:00 +19°C° 0 mm 2 mps 747 mmHg 94%
    01:00 +19°C° 0 mm 2 mps 747 mmHg 94%
    02:00 +19°C° 0 mm 2 mps 747 mmHg 95%
    03:00 +19°C° 0 mm 2 mps 747 mmHg 95%
    04:00 +19°C° 0 mm 2 mps 747 mmHg 94%
    05:00 +21°C° 0 mm 1 mps 747 mmHg 93%
    06:00 +21°C° 0 mm 2 mps 748 mmHg 89%
    07:00 +24°C° 0 mm 2 mps 748 mmHg 84%
    08:00 +25°C° 0 mm 2 mps 748 mmHg 80%
    09:00 +27°C° 0.3 mm 2 mps 748 mmHg 74%
    10:00 +28°C° 0.3 mm 2 mps 748 mmHg 69%
    11:00 +29°C° 0.3 mm 2 mps 748 mmHg 64%
    12:00 +29°C° 0.1 mm 2 mps 748 mmHg 63%
    13:00 +29°C° 0.1 mm 2 mps 748 mmHg 62%
    14:00 +30°C° 0.1 mm 2 mps 747 mmHg 61%
    15:00 +29°C° 0.2 mm 2 mps 747 mmHg 64%
    16:00 +29°C° 0.2 mm 2 mps 747 mmHg 68%
    17:00 +29°C° 0.2 mm 2 mps 747 mmHg 71%
    18:00 +27°C° 0.2 mm 2 mps 747 mmHg 77%
    19:00 +25°C° 0.2 mm 2 mps 747 mmHg 83%
    20:00 +24°C° 0.2 mm 1 mps 747 mmHg 89%
    21:00 +23°C° 0.1 mm 2 mps 747 mmHg 91%
    22:00 +21°C° 0.1 mm 2 mps 748 mmHg 93%
    23:00 +20°C° 0.1 mm 2 mps 748 mmHg 94%
    Mostrar más